DW9677 Weather Reports


time (UTC)temp
C
wind
direction
speed
KPH
gust
KPH
rain 1hr
cm
rain 24hr
cm
rain mn
cm
humidity
%
barometer
mb
20200924081638 15 40 0.0 0.0 0.00 0.10 0.00 89 1010.6
20200924074659 13 40 0.0 0.0 0.00 0.10 0.00 89 1010.5
20200924073030 12 40 0.0 0.0 0.00 0.10 0.00 88 1010.3
20200924071542 11 40 0.0 0.0 0.00 0.10 0.00 88 1010.3
20200924070059 11 40 0.0 0.0 0.00 0.10 0.00 88 1010.3
20200924064529 10 40 0.0 0.0 0.00 0.10 0.00 88 1010.2
20200924063024 10 40 0.0 0.0 0.00 0.10 0.00 88 1010.2
20200924061604 10 40 0.0 0.0 0.00 0.10 0.00 87 1010.0
20200924060018 9 40 0.0 0.0 0.00 0.10 0.00 87 1009.9
20200924054515 8 40 0.0 0.0 0.00 0.10 0.00 87 1009.5
20200924053022 8 40 0.0 0.0 0.00 0.10 0.00 86 1009.2
20200924051516 8 40 0.0 0.0 0.00 0.10 0.00 86 1009.2
20200924050011 8 40 0.0 0.0 0.00 0.10 0.00 86 1009.2
20200924044501 8 40 0.0 0.0 0.00 0.10 0.00 86 1009.0
20200924043228 8 40 0.0 0.0 0.00 0.10 0.00 86 1008.9
20200924041703 8 40 0.0 0.0 0.00 0.10 0.00 85 1008.8
20200924040114 8 40 0.0 0.0 0.00 0.10 0.00 85 1008.8
20200924034710 8 39 0.0 0.0 0.00 0.10 0.00 85 1008.8
20200924033243 8 40 0.0 0.0 0.00 0.10 0.00 85 1008.8
20200924031708 8 39 0.0 0.0 0.00 0.10 0.00 85 1008.8
20200924030215 8 40 0.0 0.0 0.00 0.10 0.00 85 1008.9
20200924024833 8 39 0.0 0.0 0.00 0.10 0.00 85 1008.8
20200924023155 9 40 0.0 0.0 0.00 0.10 0.00 85 1008.8
20200924021551 9 40 0.0 0.0 0.00 0.10 0.00 85 1008.9
20200924020130 9 40 0.0 0.0 0.00 0.10 0.00 85 1009.0
20200924014658 10 40 0.0 0.0 0.00 0.10 0.00 85 1008.8
20200924013109 10 40 0.0 0.0 0.00 0.10 0.00 85 1008.8
20200924011654 10 40 0.0 0.0 0.00 0.10 0.00 85 1008.7
20200924004634 10 40 0.0 0.0 0.00 0.10 0.00 85 1008.6
20200924003109 10 40 0.0 0.0 0.00 0.10 0.00 85 1008.6
20200924001549 10 40 0.0 0.0 0.00 0.10 0.00 85 1008.7
20200924000032 10 40 0.0 0.0 0.00 0.10 0.00 85 1008.7
20200923230110 10 40 0.0 0.0 0.00 0.10 0.00 85 1009.0
20200923221521 11 40 0.0 0.0 0.00 0.10 0.00 85 1009.1
20200923220102 11 40 0.0 0.0 0.00 0.10 0.00 84 1009.0
20200923214524 11 40 0.0 0.0 0.00 0.10 0.10 84 1009.2
20200923213056 11 40 0.0 0.0 0.00 0.10 0.10 84 1009.2
20200923174716 14 40 0.0 0.0 0.00 0.10 0.10 85 1008.7
20200923173216 14 40 0.0 0.0 0.00 0.10 0.10 85 1008.7
20200923171844 15 40 0.0 0.0 0.00 0.10 0.10 85 1008.5
20200923170303 15 40 0.0 0.0 0.00 0.10 0.10 85 1008.6
20200923164657 15 40 0.0 0.0 0.00 0.10 0.10 85 1008.3
20200923161738 16 40 0.0 0.0 0.03 0.10 0.10 85 1008.3
20200923153140 17 40 0.0 0.0 0.08 0.08 0.08 85 1008.0
20200923151650 17 40 0.0 0.0 0.08 0.08 0.08 85 1008.0
20200923150127 17 40 0.0 0.0 0.08 0.08 0.08 85 1008.1
20200923144617 18 40 0.0 0.0 0.08 0.08 0.08 83 1008.1
20200923143045 20 40 0.0 0.0 0.00 0.00 0.00 77 1008.1
20200923140112 20 40 0.0 0.0 0.00 0.00 0.00 74 1008.1
20200923134550 19 39 0.0 0.0 0.00 0.00 0.00 78 1008.3
20200923131705 18 39 0.0 0.0 0.00 0.00 0.00 80 1008.6
20200923130140 18 40 0.0 0.0 0.00 0.00 0.00 83 1008.6
20200923124648 17 40 0.0 0.0 0.00 0.00 0.00 82 1008.7
20200923123123 17 40 0.0 0.0 0.00 0.00 0.00 83 1008.8
20200923121609 17 40 0.0 0.0 0.00 0.00 0.00 85 1008.8
20200923120206 17 40 0.0 0.0 0.00 0.00 0.00 85 1008.9
20200923114642 17 40 0.0 0.0 0.00 0.00 0.00 85 1008.9
20200923113110 17 40 0.0 1.6 0.00 0.00 0.00 85 1009.0
20200923111632 17 40 0.0 0.0 0.00 0.00 0.00 85 1009.1
20200923110118 16 40 0.0 0.0 0.00 0.00 0.00 86 1009.1
20200923104642 16 40 0.0 0.0 0.00 0.00 0.00 86 1009.2
20200923103130 16 40 0.0 0.0 0.00 0.00 0.00 85 1009.3
20200923101558 15 39 0.0 0.0 0.00 0.00 0.00 86 1009.4
20200923100145 15 39 0.0 0.0 0.00 0.00 0.00 86 1009.5
20200923094636 15 40 0.0 0.0 0.00 0.00 0.00 86 1009.5
20200923093103 15 39 0.0 0.0 0.00 0.00 0.00 86 1009.6
20200923091553 16 39 0.0 0.0 0.00 0.00 0.00 86 1009.6
20200923090117 16 40 0.0 0.0 0.00 0.00 0.00 86 1009.5
20200923084610 15 40 0.0 0.0 0.00 0.00 0.00 86 1009.5
20200923083021 15 40 0.0 0.0 0.00 0.00 0.00 86 1009.4